Location: Wangen+im+Allg�u
(47.7098°N, 9.8383°E)
Time: 09:37:46
(UTC+01:00)

ISS - Visible Passes

Search period start: 17 February 2019 00:00
Search period end: 27 February 2019 00:00
Orbit: 403 x 411 km, 51.6° (Epoch: 17 February)

Date Brightness Start Highest point End Pass type
(mag) Time Alt. Az. Time Alt. Az. Time Alt. Az.
21 Feb -0.4 06:41:58 10° SSE 06:42:50 11° SE 06:43:42 10° ESE visible
23 Feb -1.4 06:33:26 10° SSW 06:36:04 22° SE 06:38:42 10° E visible
24 Feb -0.9 05:43:02 10° SSE 05:44:47 14° SE 05:46:31 10° ESE visible
25 Feb -2.8 06:26:14 10° SW 06:29:23 45° SSE 06:32:32 10° ENE visible
26 Feb -2.0 05:35:45 14° SSW 05:37:58 28° SE 05:40:50 10° E visible
